Regional Weather Roundup
Issued by NWS

Home | Current Version | Previous Version | Text Only | Print | Product List | Glossary Off
Versions: 1 2 3 4 5 6 7 8 9 10 11 12 13 14 15 16 17 18 19 20 21 22 23 24 25 26 27 28 29 30 31 32 33 34 35 36 37 38 39 40 41 42 43 44 45 46 47 48 49 50

000
ASUS43 KDTX 210401
RWRMI
MICHIGAN HOURLY REGIONAL WEATHER ROUNDUP
NATIONAL WEATHER SERVICE DETROIT/PONTIAC MI
1200 AM EDT THU AUG 21 2014

NOTE: "FAIR" INDICATES FEW OR NO CLOUDS BELOW 12,000 FEET WITH NO
SIGNIFICANT WEATHER AND/OR OBSTRUCTION TO VISIBILITY.

MIZ047>049-052>055-059>063-066>070-074>076-081>083-210500-
SOUTHEAST LOWER MICHIGAN

CITY           SKY/WX    TMP DP  RH WIND       PRES   REMARKS
ADRIAN         PTCLDY    68  65  90 CALM      29.98R
ALMA           FOG       61  60  96 CALM      29.96R VSB 3/4
ANN ARBOR      CLEAR     63  60  90 CALM      29.97R
BAD AXE        FOG       64  64 100 CALM      29.93S VSB 1
CARO           CLOUDY    65  65  99 CALM      29.95R
DETROIT CITY   CLEAR     75  63  66 W6        29.96R
DETROIT        PTCLDY    72  63  73 W5        29.97R
FLINT          CLEAR     68  63  84 SW5       29.97R
GROSSE ILE     CLEAR     70  64  83 CALM      29.96R
HILLSDALE      PTCLDY    66  66 100 CALM      29.98S
HOWELL         CLEAR     65  63  91 CALM      29.97S

CITY           SKY/WX    TMP DP  RH WIND       PRES   REMARKS
JACKSON        CLEAR     65  63  93 CALM      29.98R
LAMBERTVILLE   MOCLDY    68  64  88 CALM      29.98S
LANSING        CLEAR     67  63  87 CALM      29.97R
LAPEER         CLOUDY    67  65  95 W3        29.96R
MASON          PTCLDY    64  62  95 CALM      29.97S
MONROE         PTCLDY    66  64  94 CALM      29.96R
MT. CLEMENS    PTCLDY    70  65  86 SW7       29.95R
PONTIAC        MOCLDY    69  63  81 SW3       29.97R
PORT HOPE        N/A     67  65  93 VRB3      29.91R
PORT HURON     FOG       63  63 100 CALM      29.95R VSB 1/2
TRI CITIES     CLEAR     67  61  81 W5        29.96R
TROY           CLEAR     72  63  73 SW5       29.98R
SAGINAW HB     CLEAR     66  64  94 CALM      29.95R
$$
MIZ043>046-050>051-056>058-064>065-071>073-077>080-210500-
SOUTHWEST LOWER MICHIGAN

CITY           SKY/WX    TMP DP  RH WIND       PRES   REMARKS
BATTLE CREEK   MOCLDY    70  65  84 CALM      29.98R
BENTON HARBOR  CLOUDY    71  67  87 SE5       29.95R
BIG RAPIDS     CLEAR     60  60 100 CALM      29.96R
COLDWATER      CLOUDY    70  67  91 CALM      29.98R
FREMONT        FAIR      62  61  97 CALM      29.95S
HOLLAND        PTCLDY    69  65  86 CALM      29.97R
GRAND RAPIDS   PTCLDY    70  66  87 CALM      29.97R
IONIA          FAIR      64  62  94 CALM      29.96R
KALAMAZOO      CLOUDY    71  65  81 CALM      29.98R
LUDINGTON      CLEAR     57  56  96 N5        29.96S
MARSHALL       CLOUDY    66  65  94 CALM      29.97R
MOUNT PLEASANT CLEAR     61  60  96 CALM      29.96R
MUSKEGON       CLEAR     65  62  90 CALM      29.96R
SOUTH HAVEN    PTCLDY    68  67  99 CALM      29.96R
$$
MIZ016>042-210500-
NORTHERN LOWER MICHIGAN

CITY           SKY/WX    TMP DP  RH WIND       PRES   REMARKS
ALPENA         CLOUDY    65  62  90 VRB3      29.94R
BEAVER ISLAND  MOCLDY    61  60  96 CALM      29.95F FOG
BELLAIRE       PTCLDY    62  59  93 CALM      29.94R
CADILLAC       PTCLDY    61  59  93 CALM      29.97R
CHARLEVOIX     CLOUDY    64  64 100 CALM      29.97S
FRANKFORT      CLOUDY    61  58  90 CALM      29.95S
GAYLORD        CLOUDY    61  60  97 VRB3      29.95F
GRAYLING       CLOUDY    63  61  94 N7        29.96S
HARBOR SPRINGS CLOUDY    63  61  94 NW3       29.94F
HOUGHTON LAKE  CLOUDY    63  60  90 NW3       29.96R
MANISTEE       CLEAR     59  55  88 CALM      29.97R
OSCODA         CLOUDY    66  65  97 NE6       29.92S
PELLSTON       CLOUDY    63  62  97 W6        29.95S
ROGERS CITY    CLOUDY    63  63 100 CALM      29.95S
TRAVERSE CITY  MOCLDY    64  59  83 CALM      29.94R
$$
MIZ007>008-015-210500-
EASTERN UPPER MICHIGAN

CITY           SKY/WX    TMP DP  RH WIND       PRES   REMARKS
KINROSS        CLOUDY    61  59  94 NW6       29.94S
MACKINAC ISLAN CLOUDY    61  61 100 N5        29.94S FOG
NEWBERRY       CLOUDY    59  58  97 CALM      29.95F
S. S. MARIE    LGT RAIN  60  59  96 W5        29.93S
$$
MIZ004>006-011>014-085-210500-
CENTRAL UPPER MICHIGAN

CITY           SKY/WX    TMP DP  RH WIND       PRES   REMARKS
MANISTIQUE     CLOUDY    61  60  96 N7        29.94F
ESCANABA       CLOUDY    63  61  94 N3        29.95S
MENOMINEE      CLOUDY    66  63  88 E5        29.94R
SAWYER-GWINN   FOG       58  57  97 CALM      29.97R VSB 1/2
$$
MIZ001>003-009>011-084-210500-
WESTERN UPPER MICHIGAN

CITY           SKY/WX    TMP DP  RH WIND       PRES   REMARKS
IRON MOUNTAIN  CLOUDY    64  61  90 CALM      29.95S
HOUGHTON       CLOUDY    60  58  92 CALM      29.96S
COPPER HARBOR    N/A     55  53  93 N6        29.97R
IRONWOOD       CLEAR     61  61 100 CALM      29.94R
$$

ABBREVIATIONS USED IN REMARKS
   TC - TEMPERATURE IN CELSIUS
  WCI - WIND CHILL INDEX
   HX - HEAT INDEX
  VSB - VISIBILITY




USA.gov is the U.S. government's official web portal to all federal, state and local government web resources and services.